Weather History for Jefferson, NC

Change the Weather History Date:

Saturday, November 1, 2014

  Actual Average Record
Temperature  
Mean Temperature 33 °F -  
Max Temperature 36 °F 61 °F 78 °F (2004)
Min Temperature 30 °F 38 °F 26 °F (1990)
Degree Days  
Heating Degree Days 32    
Moisture  
Dew Point 28 °F    
Average Humidity 82    
Maximum Humidity 98    
Minimum Humidity 68    
Precipitation  
Precipitation 0.03 in - - ()
Sea Level Pressure  
Sea Level Pressure 29.84 in    
Wind  
Wind Speed 14 mph (NW)    
Max Wind Speed 25 mph    
Max Gust Speed 40 mph    
Visibility 6 miles    
Events Rain , Snow    
Averages and records for this station are not official NWS values.
T = Trace of Precipitation, MM = Missing Value Source: NWS Daily Summary

Daily Weather History Graph

Daily Weather History Graph

Search for Another Location

Airport:

Trip Planner

Search our weather history database for the weather conditions in past years. The results will help you decide how hot, cold, wet, or windy it might be!

Date:

Astronomy

Nov. 01, 2014 Rise Set
Actual Time 7:48 AM EDT 6:29 PM EDT
Civil Twilight 7:22 AM EDT 6:55 PM EDT
Nautical Twilight 6:51 AM EDT 7:26 PM EDT
Astronomical Twilight 6:21 AM EDT 7:56 PM EDT
Moon 3:13 PM EDT (11/1) 1:53 AM EDT (11/1)
Length of Visible Light 11h 33m
Length of Day
10h 40m
Waxing Gibbous, 67% of the Moon is Illuminated
Nov 1
Waxing Gibbous
Nov 6
Full
Nov 14
Last Quarter
Nov 22
New
Nov 29
First Quarter

Hourly Weather History & Observations

Time (EDT) Temp. Windchill Dew Point Humidity Pressure Visibility Wind Dir Wind Speed Gust Speed Precip Events Conditions
12:15 AM 36.9 °F 30.1 °F 32.0 °F 83% 29.76 in 10.0 mi NW 9.2 mph 16.1 mph N/A   Light Drizzle
12:35 AM 36.1 °F 30.6 °F 31.1 °F 82% 29.76 in 10.0 mi WNW 6.9 mph - N/A   Overcast
12:55 AM 35.1 °F 28.6 °F 29.7 °F 81% 29.76 in 10.0 mi NW 8.1 mph 16.1 mph N/A Snow Light Snow
1:15 AM 34.0 °F 24.2 °F 28.6 °F 81% 29.75 in 7.0 mi NW 15.0 mph 21.9 mph N/A Snow Light Snow
1:35 AM 33.3 °F 25.1 °F 27.7 °F 80% 29.75 in 4.0 mi WNW 10.4 mph - N/A Snow Light Snow
1:55 AM 32.9 °F 23.7 °F 27.3 °F 80% 29.75 in 10.0 mi NW 12.7 mph 20.7 mph N/A Snow Light Snow
2:15 AM 32.9 °F 22.8 °F 26.4 °F 77% 29.72 in 10.0 mi NW 15.0 mph 28.8 mph N/A Snow Light Snow
2:35 AM 32.9 °F 27.5 °F 26.2 °F 76% 29.74 in 10.0 mi WNW 5.8 mph - N/A   Overcast
2:55 AM 32.9 °F 25.9 °F 25.9 °F 75% 29.74 in 10.0 mi WNW 8.1 mph 21.9 mph N/A   Overcast
3:15 AM 32.5 °F 24.2 °F 25.7 °F 76% 29.74 in 7.0 mi WNW 10.4 mph 23.0 mph N/A Snow Light Snow
3:35 AM 31.5 °F 21.4 °F 27.0 °F 83% 29.73 in 1.0 mi WNW 13.8 mph 24.2 mph N/A Snow Snow
3:55 AM 31.5 °F 21.8 °F 27.0 °F 83% 29.72 in 2.0 mi NW 12.7 mph 19.6 mph N/A Snow Light Snow
4:15 AM 30.9 °F 20.7 °F 26.8 °F 85% 29.72 in 1.2 mi NW 13.8 mph 21.9 mph N/A Snow Light Snow
4:35 AM 30.9 °F 20.7 °F 27.1 °F 86% 29.72 in 1.0 mi NW 13.8 mph 19.6 mph N/A Snow Light Snow
4:55 AM 30.7 °F 20.9 °F 27.7 °F 88% 29.72 in 0.8 mi NW 12.7 mph 25.3 mph N/A Snow Snow
5:15 AM 30.7 °F 21.4 °F 28.0 °F 90% 29.72 in 0.5 mi NW 11.5 mph 21.9 mph N/A Snow Snow
5:35 AM 30.7 °F 20.9 °F 27.9 °F 89% 29.73 in 1.0 mi NW 12.7 mph 20.7 mph N/A Snow Snow
5:55 AM 30.6 °F 20.7 °F 28.6 °F 92% 29.73 in 0.8 mi NW 12.7 mph 23.0 mph 0.01 in Snow Snow
6:15 AM 30.4 °F 22.2 °F 29.3 °F 96% 29.74 in 0.5 mi NW 9.2 mph 21.9 mph N/A Snow Snow
6:35 AM 30.4 °F 20.5 °F 29.8 °F 98% 29.74 in 0.8 mi NW 12.7 mph 21.9 mph 0.01 in Snow Snow
6:55 AM 31.1 °F 20.9 °F 29.8 °F 95% 29.75 in 1.5 mi NNW 13.8 mph 23.0 mph 0.01 in Snow Light Snow
7:15 AM 31.5 °F 20.9 °F 29.1 °F 91% 29.75 in 3.0 mi NW 15.0 mph 19.6 mph 0.01 in Snow Light Snow
7:35 AM 31.5 °F 21.4 °F 29.3 °F 92% 29.76 in 1.5 mi NW 13.8 mph 19.6 mph 0.01 in Snow Light Snow
7:55 AM 31.6 °F 22.6 °F 29.3 °F 91% 29.77 in 1.5 mi NNW 11.5 mph 23.0 mph 0.01 in Snow Light Snow
8:15 AM 31.5 °F 21.4 °F 29.7 °F 93% 29.77 in 1.0 mi NW 13.8 mph 18.4 mph N/A Snow Light Snow
8:35 AM 31.6 °F 22.1 °F 29.7 °F 92% 29.78 in 0.8 mi NNW 12.7 mph 19.6 mph N/A Snow Light Snow
8:55 AM 32.0 °F 22.5 °F 29.1 °F 89% 29.79 in 2.0 mi NW 12.7 mph 20.7 mph N/A Snow Light Snow
9:15 AM 32.0 °F 22.1 °F 27.7 °F 84% 29.80 in 2.0 mi NNW 13.8 mph 21.9 mph N/A Snow Light Snow
9:35 AM 32.2 °F 22.7 °F 28.0 °F 85% 29.80 in 2.0 mi NW 12.7 mph 21.9 mph N/A Snow Light Snow
9:55 AM 32.2 °F 22.7 °F 28.4 °F 86% 29.81 in 1.2 mi NW 12.7 mph 25.3 mph N/A Snow Light Snow
10:15 AM 32.4 °F 22.1 °F 28.0 °F 84% 29.81 in 1.5 mi NW 15.0 mph 26.5 mph N/A Snow Light Snow
10:35 AM 32.4 °F 21.7 °F 28.4 °F 85% 29.82 in 1.2 mi NW 16.1 mph 24.2 mph N/A Snow Light Snow
10:55 AM 32.9 °F 22.8 °F 28.0 °F 82% 29.82 in 2.0 mi NW 15.0 mph 21.9 mph N/A Snow Light Snow
11:15 AM 33.1 °F 21.5 °F 28.2 °F 82% 29.82 in 1.8 mi NW 19.6 mph 28.8 mph N/A Snow Light Snow
11:35 AM 33.6 °F 22.2 °F 27.9 °F 79% 29.83 in 2.5 mi NW 19.6 mph 32.2 mph N/A Snow Light Snow
11:55 AM 34.2 °F 23.3 °F 27.9 °F 78% 29.83 in 2.5 mi NW 18.4 mph 31.1 mph N/A Snow Light Snow
12:15 PM 34.3 °F 23.5 °F 28.4 °F 79% 29.84 in 4.0 mi NW 18.4 mph 27.6 mph N/A Snow Light Snow
12:35 PM 34.7 °F 23.7 °F 28.6 °F 78% 29.84 in 4.0 mi NW 19.6 mph 31.1 mph N/A Snow Light Snow
12:55 PM 34.2 °F 23.6 °F 28.4 °F 79% 29.85 in 7.0 mi NW 17.3 mph 31.1 mph N/A Snow Light Snow
1:15 PM 34.3 °F 23.9 °F 28.4 °F 79% 29.85 in 10.0 mi NW 17.3 mph 28.8 mph N/A   Overcast
1:35 PM 34.9 °F 24.6 °F 28.2 °F 77% 29.86 in 10.0 mi NW 17.3 mph 32.2 mph N/A   Overcast
1:55 PM 35.6 °F 25.2 °F 28.0 °F 74% 29.85 in 10.0 mi NW 18.4 mph 28.8 mph N/A   Overcast
2:15 PM 35.6 °F 25.9 °F 28.4 °F 75% 29.85 in 10.0 mi NW 16.1 mph 29.9 mph N/A   Overcast
2:35 PM 35.4 °F 24.9 °F 29.1 °F 78% 29.86 in 10.0 mi NW 18.4 mph 28.8 mph N/A   Overcast
2:55 PM 36.0 °F 26.3 °F 29.1 °F 76% 29.86 in 10.0 mi NW 16.1 mph 25.3 mph N/A   Overcast
3:15 PM 35.6 °F 25.9 °F 29.3 °F 78% 29.86 in 10.0 mi NW 16.1 mph 26.5 mph N/A   Overcast
3:35 PM 35.2 °F 24.7 °F 29.8 °F 81% 29.86 in 10.0 mi NNW 18.4 mph 28.8 mph N/A   Overcast
3:55 PM 35.8 °F 25.1 °F 30.2 °F 80% 29.86 in 7.0 mi NW 19.6 mph 31.1 mph N/A   Overcast
4:15 PM 35.8 °F 24.8 °F 29.7 °F 78% 29.87 in 10.0 mi NW 20.7 mph 32.2 mph N/A   Overcast
4:35 PM 36.0 °F 26.0 °F 29.3 °F 77% 29.88 in 10.0 mi NW 17.3 mph 27.6 mph N/A   Overcast
4:55 PM 36.1 °F 25.2 °F 29.1 °F 76% 29.88 in 10.0 mi NNW 20.7 mph 28.8 mph N/A   Overcast
5:15 PM 36.0 °F 25.6 °F 29.8 °F 78% 29.89 in 10.0 mi NW 18.4 mph 26.5 mph N/A Rain Light Rain
5:35 PM 34.9 °F 23.6 °F 30.0 °F 82% 29.89 in 7.0 mi NW 20.7 mph 29.9 mph N/A Snow Light Snow
5:55 PM 34.7 °F 24.7 °F 29.8 °F 82% 29.89 in 5.0 mi NW 16.1 mph 32.2 mph N/A Snow Light Snow
6:15 PM 34.3 °F 23.2 °F 29.8 °F 84% 29.90 in 5.0 mi NW 19.6 mph 28.8 mph N/A Snow Light Snow
6:35 PM 34.3 °F 23.5 °F 30.0 °F 84% 29.92 in 7.0 mi NW 18.4 mph 32.2 mph N/A Snow Light Snow
6:55 PM 34.3 °F 22.6 °F 29.8 °F 84% 29.93 in 10.0 mi NW 21.9 mph 38.0 mph N/A Snow Light Snow
7:15 PM 34.2 °F 22.6 °F 30.2 °F 85% 29.95 in 4.0 mi NW 20.7 mph 32.2 mph N/A Snow Light Snow
7:35 PM 33.8 °F 22.5 °F 30.2 °F 87% 29.96 in 3.0 mi NW 19.6 mph 28.8 mph N/A Snow Light Snow
7:55 PM 33.8 °F 21.9 °F 30.0 °F 86% 29.96 in 5.0 mi NW 21.9 mph 28.8 mph N/A Snow Light Snow
8:15 PM 33.8 °F 21.9 °F 29.3 °F 84% 29.97 in 5.0 mi NW 21.9 mph 31.1 mph N/A Snow Light Snow
8:35 PM 33.8 °F 22.5 °F 28.4 °F 81% 29.98 in 5.0 mi NW 19.6 mph 34.5 mph N/A Rain Light Rain
8:55 PM 33.8 °F 22.5 °F 27.9 °F 79% 29.98 in 10.0 mi NW 19.6 mph 27.6 mph N/A Rain Light Rain
9:15 PM 33.3 °F 20.3 °F 27.3 °F 79% 29.98 in 7.0 mi NW 25.3 mph 36.8 mph N/A Rain Light Rain
9:35 PM 33.1 °F 20.9 °F 27.1 °F 79% 29.99 in 7.0 mi NW 21.9 mph 32.2 mph N/A Snow Light Snow
9:55 PM 32.5 °F 21.9 °F 27.5 °F 82% 30.01 in 4.0 mi NW 16.1 mph 29.9 mph N/A Snow Light Snow
10:15 PM 32.5 °F 20.5 °F 26.6 °F 79% 30.01 in 5.0 mi NW 20.7 mph 31.1 mph N/A Snow Light Snow
10:35 PM 32.4 °F 20.3 °F 25.7 °F 76% 30.01 in 10.0 mi NW 20.7 mph 26.5 mph N/A   Overcast
10:55 PM 32.0 °F 19.5 °F 26.2 °F 79% 30.00 in 5.0 mi NW 21.9 mph 31.1 mph N/A Snow Light Snow
11:15 PM 32.0 °F 18.9 °F 25.7 °F 78% 30.00 in 5.0 mi NW 24.2 mph 35.7 mph N/A   Overcast
11:35 PM 31.8 °F 18.4 °F 24.1 °F 73% 30.00 in 7.0 mi NW 25.3 mph 39.1 mph N/A   Overcast
11:55 PM 31.8 °F 19.0 °F 22.3 °F 68% 30.00 in 10.0 mi NW 23.0 mph 40.3 mph N/A   Overcast